Weather History for PAGS - August, 2013

Change the Weather History Date:

Saturday, August 31, 2013

  Actual Average Record
Temperature  
Mean Temperature 58 °F -  
Max Temperature 60 °F 61 °F 74 °F (1963)
Min Temperature 55 °F 44 °F 37 °F (1958)
Degree Days  
Heating Degree Days 8    
Growing Degree Days 8 (Base 50)    
Moisture  
Dew Point 56 °F    
Average Humidity 91    
Maximum Humidity 100    
Minimum Humidity 82    
Precipitation  
Precipitation 0.00 in - - ()
Sea Level Pressure  
Sea Level Pressure 29.99 in    
Wind  
Wind Speed 4 mph (SE)    
Max Wind Speed 14 mph    
Max Gust Speed -    
Visibility 9 miles    
Events      
Averages and records for this station are not official NWS values.
T = Trace of Precipitation, MM = Missing Value Source: NWS Daily Summary

Daily Weather History Graph

Daily Weather History Graph

Search for Another Location

Airport or City:

Trip Planner

Search our weather history database for the weather conditions in past years. The results will help you decide how hot, cold, wet, or windy it might be!

Date:

Astronomy

Aug. 31, 2013 Rise Set
Actual Time 6:00 AM AKDT 8:03 PM AKDT
Civil Twilight 5:17 AM AKDT 8:46 PM AKDT
Nautical Twilight 4:22 AM AKDT 9:40 PM AKDT
Astronomical Twilight 3:14 AM AKDT 10:47 PM AKDT
Moon 12:56 AM AKDT (8/31) 5:41 PM AKDT (8/31)
Length of Visible Light 15h 28m
Length of Day
14h 03m
Waning Crescent, 20% of the Moon is Illuminated
Aug 31
Waning Crescent
Sep 5
New
Sep 12
First Quarter
Sep 19
Full
Sep 26
Last Quarter

Hourly Weather History & Observations

Time (AKDT) Temp. Dew Point Humidity Pressure Visibility Wind Dir Wind Speed Gust Speed Precip Events Conditions
12:16 AM 57.2 °F 57.2 °F 100% 30.02 in 4.0 mi Calm Calm - N/A   Overcast
12:36 AM 57.2 °F 55.4 °F 94% 30.03 in 9.0 mi Calm Calm - N/A   Overcast
12:56 AM 57.2 °F 55.4 °F 94% 30.02 in 10.0 mi Calm Calm - N/A   Overcast
1:16 AM 57.2 °F 55.4 °F 94% 30.03 in 10.0 mi Calm Calm - N/A   Overcast
1:36 AM 57.2 °F 55.4 °F 94% 30.03 in 10.0 mi NW 4.6 mph - N/A   Overcast
1:56 AM 57.2 °F 55.4 °F 94% 30.03 in 10.0 mi Calm Calm - N/A   Overcast
2:16 AM 57.2 °F 55.4 °F 94% 30.03 in 10.0 mi Calm Calm - N/A   Overcast
2:36 AM 55.4 °F 55.4 °F 100% 30.02 in 10.0 mi Calm Calm - N/A   Overcast
2:56 AM 55.4 °F 55.4 °F 100% 30.03 in 10.0 mi NW 3.5 mph - N/A   Overcast
3:16 AM 55.4 °F 53.6 °F 94% 30.03 in 10.0 mi NNW 4.6 mph - N/A   Overcast
3:36 AM 55.4 °F 53.6 °F 94% 30.03 in 7.0 mi NW 3.5 mph - N/A   Overcast
3:56 AM 55.4 °F 53.6 °F 94% 30.03 in 5.0 mi NNW 4.6 mph - N/A   Overcast
4:16 AM 55.4 °F 53.6 °F 94% 30.03 in 5.0 mi Calm Calm - N/A   Overcast
4:36 AM 55.4 °F 53.6 °F 94% 30.02 in 10.0 mi NNW 3.5 mph - N/A   Overcast
4:56 AM 55.4 °F 53.6 °F 94% 30.02 in 10.0 mi Calm Calm - N/A   Overcast
5:16 AM 55.4 °F 53.6 °F 94% 30.02 in 10.0 mi NW 3.5 mph - N/A   Overcast
5:36 AM 55.4 °F 53.6 °F 94% 30.02 in 10.0 mi NNW 5.8 mph - N/A   Overcast
5:56 AM 55.4 °F 53.6 °F 94% 30.03 in 10.0 mi North 5.8 mph - N/A   Overcast
6:16 AM 55.4 °F 53.6 °F 94% 30.02 in 10.0 mi North 3.5 mph - N/A   Overcast
6:36 AM 55.4 °F 53.6 °F 94% 30.03 in 10.0 mi Calm Calm - N/A   Overcast
6:56 AM 55.4 °F 53.6 °F 94% 30.03 in 10.0 mi Calm Calm - N/A   Overcast
7:16 AM 55.4 °F 53.6 °F 94% 30.03 in 3.0 mi Calm Calm - N/A   Overcast
7:36 AM 55.4 °F 53.6 °F 94% 30.02 in 3.0 mi Calm Calm - N/A   Overcast
7:56 AM 55.4 °F 53.6 °F 94% 30.02 in 5.0 mi Calm Calm - N/A   Overcast
8:16 AM 55.4 °F 53.6 °F 94% 30.02 in 4.0 mi Calm Calm - N/A   Overcast
8:36 AM 57.2 °F 55.4 °F 94% 30.02 in 5.0 mi Calm Calm - N/A   Overcast
8:56 AM 57.2 °F 55.4 °F 94% 30.02 in 10.0 mi Calm Calm - N/A   Overcast
9:16 AM 59.0 °F 57.2 °F 94% 30.02 in 10.0 mi SE 4.6 mph - N/A   Overcast
9:36 AM 59.0 °F 57.2 °F 94% 30.02 in 9.0 mi SE 5.8 mph - N/A   Overcast
9:56 AM 59.0 °F 57.2 °F 94% 30.02 in 10.0 mi ESE 5.8 mph - N/A   Overcast
10:16 AM 59.0 °F 57.2 °F 94% 30.02 in 10.0 mi SE 4.6 mph - N/A   Overcast
10:36 AM 60.8 °F 57.2 °F 88% 30.02 in 10.0 mi ESE 4.6 mph - N/A   Overcast
10:56 AM 60.8 °F 57.2 °F 88% 30.02 in 10.0 mi SE 5.8 mph - N/A   Overcast
11:16 AM 60.8 °F 57.2 °F 88% 30.02 in 10.0 mi SE 5.8 mph - N/A   Overcast
11:36 AM 60.8 °F 57.2 °F 88% 30.02 in 10.0 mi SE 6.9 mph - N/A   Overcast
11:56 AM 60.8 °F 57.2 °F 88% 30.02 in 10.0 mi ESE 5.8 mph - N/A   Overcast
12:16 PM 60.8 °F 57.2 °F 88% 30.02 in 7.0 mi ESE 8.1 mph - N/A   Overcast
12:36 PM 60.8 °F 57.2 °F 88% 30.01 in 5.0 mi SE 9.2 mph - N/A   Overcast
12:56 PM 60.8 °F 57.2 °F 88% 30.01 in 6.0 mi ESE 8.1 mph - N/A   Overcast
1:16 PM 60.8 °F 57.2 °F 88% 30.01 in 9.0 mi ESE 8.1 mph - N/A   Overcast
1:36 PM 60.8 °F 57.2 °F 88% 30.01 in 10.0 mi ESE 8.1 mph - N/A   Overcast
1:56 PM 60.8 °F 57.2 °F 88% 30.00 in 10.0 mi SE 6.9 mph - N/A   Overcast
2:16 PM 60.8 °F 57.2 °F 88% 30.00 in 10.0 mi ESE 5.8 mph - N/A   Overcast
2:36 PM 60.8 °F 57.2 °F 88% 30.00 in 10.0 mi East 5.8 mph - N/A   Overcast
2:56 PM 60.8 °F 57.2 °F 88% 29.99 in 10.0 mi ESE 8.1 mph - N/A   Overcast
3:16 PM 60.8 °F 57.2 °F 88% 29.99 in 10.0 mi SE 6.9 mph - N/A   Overcast
3:36 PM 60.8 °F 57.2 °F 88% 29.99 in 10.0 mi SE 9.2 mph - N/A   Overcast
3:56 PM 60.8 °F 57.2 °F 88% 29.98 in 10.0 mi SE 6.9 mph - N/A   Overcast
4:16 PM 60.8 °F 57.2 °F 88% 29.98 in 10.0 mi SSE 8.1 mph - N/A   Overcast
4:36 PM 60.8 °F 57.2 °F 88% 29.98 in 10.0 mi SSE 5.8 mph - N/A   Overcast
4:56 PM 60.8 °F 57.2 °F 88% 29.97 in 10.0 mi SE 3.5 mph - N/A   Overcast
5:16 PM 60.8 °F 57.2 °F 88% 29.97 in 10.0 mi SE 8.1 mph - N/A   Overcast
5:36 PM 60.8 °F 57.2 °F 88% 29.96 in 10.0 mi SE 8.1 mph - N/A   Overcast
5:56 PM 60.8 °F 57.2 °F 88% 29.96 in 10.0 mi SE 10.4 mph - N/A   Overcast
6:16 PM 60.8 °F 57.2 °F 88% 29.95 in 9.0 mi SSE 9.2 mph - N/A   Overcast
6:36 PM 60.8 °F 57.2 °F 88% 29.95 in 10.0 mi SE 8.1 mph - N/A   Overcast
6:56 PM 59.0 °F 57.2 °F 94% 29.95 in 10.0 mi SE 10.4 mph - N/A   Overcast
7:16 PM 59.0 °F 57.2 °F 94% 29.95 in 10.0 mi SE 10.4 mph - N/A   Overcast
7:36 PM 59.0 °F 57.2 °F 94% 29.94 in 5.0 mi SE 11.5 mph - N/A   Overcast
7:56 PM 59.0 °F 57.2 °F 94% 29.93 in 10.0 mi ESE 8.1 mph - N/A   Overcast
8:16 PM 59.0 °F 57.2 °F 94% 29.93 in 10.0 mi ESE 6.9 mph - N/A   Overcast
8:36 PM 59.0 °F 57.2 °F 94% 29.92 in 9.0 mi SE 5.8 mph - N/A   Overcast
8:56 PM 59.0 °F 57.2 °F 94% 29.92 in 10.0 mi SE 9.2 mph - N/A   Overcast
9:16 PM 60.8 °F 55.4 °F 82% 29.92 in 10.0 mi SE 10.4 mph - N/A   Overcast
9:36 PM 60.8 °F 55.4 °F 82% 29.92 in 10.0 mi SE 9.2 mph - N/A   Overcast
9:56 PM 60.8 °F 55.4 °F 82% 29.91 in 10.0 mi SE 11.5 mph - N/A   Overcast
10:16 PM 60.8 °F 55.4 °F 82% 29.91 in 10.0 mi SE 8.1 mph - N/A   Overcast
10:36 PM 60.8 °F 55.4 °F 82% 29.90 in 10.0 mi SE 11.5 mph - N/A   Overcast
10:56 PM 60.8 °F 55.4 °F 82% 29.90 in 10.0 mi SE 9.2 mph - N/A   Overcast
11:16 PM 59.0 °F 55.4 °F 88% 29.90 in 10.0 mi SE 12.7 mph - N/A   Overcast
11:36 PM 59.0 °F 55.4 °F 88% 29.89 in 10.0 mi SE 13.8 mph - N/A   Overcast
11:56 PM 59.0 °F 55.4 °F 88% 29.89 in 10.0 mi SE 12.7 mph - N/A   Overcast